Location: Bismarck
(46.7731°N, 100.8200°W)
Time: 20:37:41
(UTC-05:00)

Landsat 7 - Visible Passes

Search period start: 03 July 2015 00:00
Search period end: 13 July 2015 00:00
Orbit: 701 x 703 km, 98.2° (Epoch: 03 July)

Date Brightness Start Highest point End Pass type
(mag) Time Alt. Az. Time Alt. Az. Time Alt. Az.
03 Jul 5.2 00:04:46 14° SSW 00:08:14 32° W 00:12:30 10° NNW visible
03 Jul 3.8 23:09:10 15° SSE 23:13:04 78° ENE 23:17:51 10° N visible
04 Jul 6.2 00:49:08 10° WSW 00:51:31 13° W 00:53:41 10° WNW visible
04 Jul 5.2 22:14:30 10° ESE 22:18:22 26° ENE 22:22:19 10° N visible
04 Jul 4.7 23:52:28 16° SSW 23:55:57 42° W 00:00:28 10° NNW visible
05 Jul 4.0 22:56:52 14° SSE 23:00:54 60° ENE 23:05:37 10° N visible
06 Jul 6.0 00:35:55 10° SW 00:39:08 17° W 00:42:12 10° NW visible
06 Jul 4.3 23:40:10 17° S 23:43:42 55° W 23:48:23 10° NNW visible
07 Jul 4.3 22:44:34 12° SE 22:48:45 47° ENE 22:53:19 10° N visible
08 Jul 5.7 00:23:27 12° SW 00:26:47 22° W 00:30:27 10° NW visible
08 Jul 4.0 23:27:52 17° S 23:31:27 72° WSW 23:36:14 10° NNW visible
09 Jul 4.7 22:32:17 10° SE 22:36:36 36° ENE 22:40:59 10° N visible
10 Jul 5.3 00:11:10 14° SSW 00:14:27 28° W 00:18:33 10° NW visible
10 Jul 3.8 23:15:34 17° SSE 23:19:15 88° ENE 23:24:02 10° NNW visible
11 Jul 6.3 00:56:04 10° WSW 00:57:48 11° W 00:59:15 10° WNW visible
11 Jul 5.0 22:20:27 10° SE 22:24:28 29° ENE 22:28:36 10° N visible
11 Jul 5.0 23:58:52 16° SSW 00:02:09 37° W 00:06:33 10° NNW visible
12 Jul 3.9 23:03:17 16° SSE 23:07:04 69° ENE 23:11:49 10° N visible
